Simultaneous Nadir Overpasses (SNOs) Predictions

Prediction of SNOs between GOES-15 and METOP-A Satellite Orbit:

Table of predicted SNOs for the next 14.0 days since TLE Epoch: 7/24/2020
Index Date Time (GOES-15) GOES-15 Lat,Lon METOP-A Lat,Lon Distance(km) Time Diff (sec)
1 07/25/2020 05:21:50 0.00,-128.39 -0.51,-130.72 265.86 80
2 07/26/2020 04:58:30 0.00,-128.39 0.56,-125.74 301.79 80
3 07/27/2020 17:17:21 -0.00,-128.40 0.44,-130.33 220.29 80
4 07/28/2020 16:59:22 -0.00,-128.40 -0.69,-125.36 347.46 80
5 07/30/2020 05:18:22 0.01,-128.40 -0.32,-129.99 180.54 80
6 07/31/2020 04:55:02 0.01,-128.39 0.75,-125.00 386.38 80
7 08/01/2020 17:13:53 -0.01,-128.39 0.25,-129.59 137.17 80
8 08/02/2020 16:55:52 -0.01,-128.39 -0.83,-124.61 430.08 80
9 08/04/2020 05:14:53 0.01,-128.38 -0.18,-129.24 97.96 80
10 08/05/2020 04:51:32 0.00,-128.37 0.89,-124.25 468.79 80
11 08/06/2020 17:10:24 -0.01,-128.36 0.10,-128.85 55.38 80
